This demonstration page uses our WeatherBlox Daily Observations layout. Learn more.

Left ArrowRight Arrow

Hourly Observations for July 9, 2018

Temp ( °F °C ) Dew Point ( °F °C ) Humidity (%) Winds ( mph kmh ) Pressure ( in mb ) Visibility ( mi km ) Precip ( " mm )
12:51 am 00:51 Mostly Clear 85 29.4 52 11.1 32 32 E 12 19 29.87 1011 10 16.0934 N/A
1:51 am 01:51 Clear 83 28.3 53 11.7 36 36 E 10 17 29.85 1011 10 16.0934 N/A
2:51 am 02:51 Clear 81 27.2 53 11.7 38 38 ESE 7 11 29.86 1011 10 16.0934 N/A
3:51 am 03:51 Clear 82 27.8 56 13.3 41 41 E 16 26 29.88 1012 10 16.0934 N/A
4:51 am 04:51 Clear 79 26.1 56 13.3 45 45 ESE 10 17 29.93 1014 10 16.0934 N/A
5:51 am 05:51 Sunny 79 26.1 56 13.3 45 45 ESE 7 11 29.96 1015 10 16.0934 N/A
6:51 am 06:51 Sunny 81 27.2 55 12.8 41 41 E 12 19 29.97 1015 10 16.0934 N/A
7:51 am 07:51 Sunny 82 27.8 56 13.3 41 41 ESE 8 13 29.99 1016 10 16.0934 N/A
8:51 am 08:51 Sunny 86 30 57 13.9 37 37 ESE 16 26 29.99 1016 10 16.0934 N/A
9:51 am 09:51 Mostly Cloudy 82 27.8 57 13.9 42 42 SE 8 13 30.01 1016 10 16.0934 N/A
10:51 am 10:51 Sunny 86 30 54 12.2 33 33 SE 7 11 29.97 1015 10 16.0934 N/A
11:51 am 11:51 Sunny 89 31.7 54 12.2 30 30 VRB 5 7 29.95 1014 10 16.0934 N/A
12:51 pm 12:51 Mostly Sunny 94 34.4 54 12.2 26 26 SSE 18 30 29.9 1013 10 16.0934 N/A
1:21 pm 13:21 Partly Cloudy with Nearby Thunderstorms 93 33.9 54 12.2 27 27 ESE 25 41 29.83 1010 10 16.0934 N/A
1:51 pm 13:51 Sunny 91 32.8 49 9.4 24 24 ESE 23 37 29.93 1013 10 16.0934 N/A
2:00 pm 14:00 Sunny with Nearby Thunderstorms 91 33 52 11 26 26 E 26 43 29.85 1011 10 16.0934 N/A
2:24 pm 14:24 Sunny 91 33 52 11 26 26 ESE 22 35 29.85 1011 10 16.0934 N/A
2:51 pm 14:51 Sunny 91 32.8 51 10.6 26 26 ESE 25 41 29.92 1013 10 16.0934 N/A
3:51 pm 15:51 Partly Cloudy 91 32.8 48 8.9 23 23 ESE 16 26 29.91 1013 10 16.0934 N/A
4:51 pm 16:51 Sunny 92 33.3 48 8.9 22 22 ESE 10 17 29.89 1012 10 16.0934 N/A
5:51 pm 17:51 Mostly Sunny 90 32.2 49 9.4 24 24 ESE 16 26 29.88 1012 10 16.0934 N/A
6:51 pm 18:51 Mostly Sunny 86 30 52 11.1 31 31 ESE 14 22 29.89 1012 10 16.0934 N/A
7:51 pm 19:51 Mostly Clear 84 28.9 55 12.8 37 37 ESE 12 19 29.91 1013 10 16.0934 N/A
8:51 pm 20:51 Mostly Cloudy 84 28.9 54 12.2 36 36 E 9 15 29.92 1013 10 16.0934 N/A
9:51 pm 21:51 Mostly Cloudy 83 28.3 56 13.3 40 40 ESE 10 17 29.94 1014 10 16.0934 N/A
10:51 pm 22:51 Cloudy 83 28.3 56 13.3 40 40 E 13 20 29.94 1014 10 16.0934 N/A
11:51 pm 23:51 Mostly Cloudy 82 27.8 56 13.3 41 41 SE 12 19 29.95 1014 10 16.0934 N/A

Powered by AerisWeather